SL-16 DEB, 22341

Orbit data source: Space-Track

SL-16 DEB, 22341 is space debris in LEO originally from a launch on Fri, 25 Dec 1992 UTC launched from the Tyuratam Missile And Space Complex (TTMTR). Debris objects in space refer to the collection of defunct objects orbiting the Earth. Examples of debris include non-operational satellites, rocket bodies, and fragments generated from explosions, collisions, or faulty payload assembly.

Loading next visibility...
Identifier
22341, 1992-093AE
Orbit
LEO
Last TLE update
1 day ago
Origin
Manufacturer
Unknown
Mission
Spacecraft
Bus & Motor
Unknown
Mass
Unknown
Launch date (UTC)
1992-12-25 (33 years ago)
Launch vehicle
Unknown
Launch site
Tyuratam Missile And Space Complex (TTMTR)
Object type
Payload
Rocket body
Debris
Shape & HBR
Unknown
Radar Cross Section
Small (<0.1 m²)

Expand to show TLE details & history

TLE from 1 day ago
0 SL-16 DEB
1 22341U 92093AE  25186.20329038  .00000309  00000-0  24648-3 0  9993
2 22341  70.7454 105.5140 0138667 144.1225   5.4024 13.94420366649324
Epoch: 2025-07-05T04:52Z
TLE epoch observation values (Epoch: 2025-07-05T04:52:44.288Z)
Latitude
28.52134°
Longitude
-81.99897°
Altitude
815.492 km
Speed
7.5 km/s
True Right ascension
18h 18m 31s
True Declination
28° 22' 42"
Sunlit
Object was in full shadow at epoch
Visualization orbit readout
Latitude
-21.78682°
Longitude
98.75915°
Altitude
1,018.657 km
Speed
7.292 km/s
Apparent Right ascension
06h 08m 31s
Apparent Declination
-30° 04' 43"
Sunlit
Object is in daylight
Visualization observer readout
Local Sidereal Time
17:50:15
Azimuth
337.821° N
Elevation
-79.479°
Doppler factor
1
Orbital elements
Apogee altitude
1,012.229 km
Perigee altitude
810.072 km
Semi-major axis
7,289.287 km
Eccentricity
0.01387
Inclination
70.7454°
RAAN
105.514°
Arg. of periapsis
144.1225°
True anomaly
Unknown
Mean anomaly
5.4024°
Eccentric anomaly
Unknown
Mean motion
3.48751 °/min
Orbital period
103.23 mins
BSTAR
0.00024648
Loading maneuver chart data...
Loading SW <> Apogee altitude chart data...
Loading historical data...
Loading historical data...
Loading historical data...
Loading historical data...
Loading historical data...
Loading historical data...
Loading historical data...

SL-16 DEB Visibility forecast

Observer location: undefined°, undefined°

Span
Click to sort rows by Start time (UTC) header in descending order
Start Az.
Max El. time (UTC)
Max El. Az.
Max El.
End time (UTC)
End Az.
9 mins2025-07-06 06:34:50.472Z316.736° NNW2025-07-06 06:39:50.472Z250.131° W27.768°2025-07-06 06:43:50.472Z197.119° SSW
10 mins2025-07-06 19:53:50.472Z203.159° SW2025-07-06 19:58:50.472Z9.896° NNE44.525°2025-07-06 20:03:50.472Z22.873° NE
5 mins2025-07-06 21:42:50.472Z288.867° WNW2025-07-06 21:44:50.472Z310.773° NW14.758°2025-07-06 21:47:50.472Z342.914° N
9 mins2025-07-07 04:56:50.472Z354.18° N2025-07-07 05:00:50.472Z64.57° ENE35.517°2025-07-07 05:05:50.472Z133.973° SE
|